Monticello, IA

3:16 PM CDT on September 28, 2016 (GMT -0500)
Monticello Regional

Weather History for KMXO - October, 2013

Change the Weather History Date:

Saturday, October 26, 2013

  Actual Average Record
Temperature  
Mean Temperature 42 °F -  
Max Temperature 51 °F 55 °F 73 °F (2000)
Min Temperature 32 °F 38 °F 23 °F (2005)
Degree Days  
Heating Degree Days 24    
Moisture  
Dew Point 29 °F    
Average Humidity 58    
Maximum Humidity 87    
Minimum Humidity 37    
Precipitation  
Precipitation 0.00 in - - ()
Sea Level Pressure  
Sea Level Pressure 30.00 in    
Wind  
Wind Speed 13 mph (WNW)    
Max Wind Speed 23 mph    
Max Gust Speed 33 mph    
Visibility 10 miles    
Events      
Averages and records for this station are not official NWS values.
T = Trace of Precipitation, MM = Missing Value Source: NWS Daily Summary

Daily Weather History Graph

Daily Weather History Graph

Search for Another Location

Airport or City:

Trip Planner

Search our weather history database for the weather conditions in past years. The results will help you decide how hot, cold, wet, or windy it might be!

Date:

Astronomy

Oct. 26, 2013 Rise Set
Actual Time 7:30 AM CDT 6:05 PM CDT
Civil Twilight 7:01 AM CDT 6:34 PM CDT
Nautical Twilight 6:29 AM CDT 7:07 PM CDT
Astronomical Twilight 5:56 AM CDT 7:39 PM CDT
Moon No Moon Rise 1:47 PM CDT (10/26)
Length of Visible Light 11h 32m
Length of Day
10h 35m
Waning Gibbous, 53% of the Moon is Illuminated
Oct 26
Waning Gibbous
Oct 26
Last Quarter
Nov 3
New
Nov 9
First Quarter
Nov 17
Full

Hourly Weather History & Observations

Time (CDT) Temp. Windchill Dew Point Humidity Pressure Visibility Wind Dir Wind Speed Gust Speed Precip Events Conditions
12:15 AM 44.6 °F 37.8 °F 26.6 °F 49% 29.98 in 10.0 mi SW 15.0 mph - N/A   Clear
12:35 AM 44.6 °F 37.8 °F 26.6 °F 49% 29.97 in 10.0 mi SW 15.0 mph 20.7 mph N/A   Clear
12:55 AM 44.6 °F 38.1 °F 26.6 °F 49% 29.97 in 10.0 mi SW 13.8 mph 20.7 mph N/A   Clear
1:15 AM 44.6 °F 37.8 °F 26.6 °F 49% 29.95 in 10.0 mi SW 15.0 mph 21.9 mph N/A   Clear
1:35 AM 44.6 °F 37.8 °F 26.6 °F 49% 29.94 in 10.0 mi SW 15.0 mph - N/A   Clear
1:55 AM 44.6 °F 38.1 °F 26.6 °F 49% 29.92 in 10.0 mi SW 13.8 mph - N/A   Clear
2:15 AM 44.6 °F 37.2 °F 26.6 °F 49% 29.91 in 10.0 mi SW 17.3 mph 23.0 mph N/A   Clear
2:35 AM 44.6 °F 37.8 °F 26.6 °F 49% 29.90 in 10.0 mi SW 15.0 mph 25.3 mph N/A   Partly Cloudy
2:55 AM 44.6 °F 37.4 °F 26.6 °F 49% 29.89 in 10.0 mi SW 16.1 mph 26.5 mph N/A   Partly Cloudy
3:15 AM 44.6 °F 37.4 °F 28.4 °F 53% 29.89 in 10.0 mi WSW 16.1 mph 21.9 mph N/A   Clear
3:35 AM 44.6 °F 37.4 °F 28.4 °F 53% 29.88 in 10.0 mi WSW 16.1 mph - N/A   Clear
3:55 AM 44.6 °F 37.4 °F 28.4 °F 53% 29.88 in 10.0 mi WSW 16.1 mph - N/A   Clear
4:15 AM 44.6 °F 38.1 °F 28.4 °F 53% 29.88 in 10.0 mi WSW 13.8 mph 20.7 mph N/A   Clear
4:35 AM 44.6 °F 37.4 °F 28.4 °F 53% 29.88 in 10.0 mi WSW 16.1 mph - N/A   Clear
4:55 AM 42.8 °F 35.8 °F 28.4 °F 57% 29.88 in 10.0 mi West 13.8 mph - N/A   Clear
5:15 AM 42.8 °F 37.0 °F 30.2 °F 61% 29.88 in 10.0 mi WSW 10.4 mph 16.1 mph N/A   Partly Cloudy
5:35 AM 42.8 °F 37.0 °F 30.2 °F 61% 29.88 in 10.0 mi WSW 10.4 mph - N/A   Partly Cloudy
5:55 AM 42.8 °F 36.6 °F 30.2 °F 61% 29.88 in 10.0 mi West 11.5 mph - N/A   Clear
6:15 AM 42.8 °F 38.0 °F 30.2 °F 61% 29.89 in 10.0 mi West 8.1 mph - N/A   Clear
6:35 AM 42.8 °F 37.0 °F 32.0 °F 66% 29.89 in 10.0 mi West 10.4 mph 17.3 mph N/A   Clear
6:55 AM 42.8 °F 38.0 °F 32.0 °F 66% 29.90 in 10.0 mi WNW 8.1 mph 13.8 mph N/A   Clear
7:15 AM 42.8 °F 36.6 °F 33.8 °F 70% 29.90 in 10.0 mi WNW 11.5 mph 20.7 mph N/A   Clear
7:35 AM 41.0 °F 34.3 °F 33.8 °F 76% 29.90 in 10.0 mi WNW 11.5 mph - N/A   Clear
7:55 AM 41.0 °F 33.9 °F 33.8 °F 76% 29.91 in 10.0 mi WNW 12.7 mph - N/A   Clear
8:15 AM 42.8 °F 36.2 °F 33.8 °F 70% 29.92 in 10.0 mi NW 12.7 mph 19.6 mph N/A   Clear
8:35 AM 42.8 °F 35.8 °F 33.8 °F 70% 29.93 in 10.0 mi NW 13.8 mph - N/A   Clear
8:55 AM 42.8 °F 35.4 °F 33.8 °F 70% 29.94 in 10.0 mi WNW 15.0 mph 27.6 mph N/A   Clear
9:15 AM 44.6 °F 37.4 °F 33.8 °F 66% 29.95 in 10.0 mi WNW 16.1 mph - N/A   Clear
9:35 AM 44.6 °F 35.9 °F 32.0 °F 61% 29.95 in 10.0 mi NW 23.0 mph 33.4 mph N/A   Clear
9:55 AM 44.6 °F 35.9 °F 30.2 °F 57% 29.96 in 10.0 mi NW 23.0 mph 33.4 mph N/A   Clear
10:15 AM 46.4 °F 38.7 °F 30.2 °F 53% 29.97 in 10.0 mi NW 20.7 mph 28.8 mph N/A   Clear
10:35 AM 46.4 °F 39.2 °F 32.0 °F 57% 29.97 in 10.0 mi NW 18.4 mph - N/A   Clear
10:55 AM 48.2 °F - 32.0 °F 54% 29.98 in 10.0 mi NW 18.4 mph 26.5 mph N/A   Clear
11:15 AM 46.4 °F 40.1 °F 32.0 °F 57% 29.99 in 10.0 mi NNW 15.0 mph 24.2 mph N/A   Clear
11:35 AM 46.4 °F 39.5 °F 32.0 °F 57% 30.00 in 10.0 mi NNW 17.3 mph 25.3 mph N/A   Clear
11:55 AM 48.2 °F - 32.0 °F 54% 30.01 in 10.0 mi NW 15.0 mph 23.0 mph N/A   Clear
12:15 PM 48.2 °F - 32.0 °F 54% 30.01 in 10.0 mi NW 17.3 mph 24.2 mph N/A   Clear
12:35 PM 48.2 °F - 32.0 °F 54% 30.01 in 10.0 mi WNW 19.6 mph 26.5 mph N/A   Partly Cloudy
12:55 PM 50.0 °F - 32.0 °F 50% 30.01 in 10.0 mi NW 17.3 mph 24.2 mph N/A   Partly Cloudy
1:15 PM 50.0 °F - 32.0 °F 50% 30.02 in 10.0 mi NW 17.3 mph 25.3 mph N/A   Scattered Clouds
1:35 PM 51.8 °F - 30.2 °F 44% 30.01 in 10.0 mi NW 18.4 mph 25.3 mph N/A   Partly Cloudy
1:55 PM 51.8 °F - 28.4 °F 41% 30.02 in 10.0 mi NNW 19.6 mph 26.5 mph N/A   Clear
2:15 PM 51.8 °F - 26.6 °F 38% 30.02 in 10.0 mi NNW 20.7 mph - N/A   Clear
2:35 PM 51.8 °F - 26.6 °F 38% 30.03 in 10.0 mi NNW 19.6 mph 26.5 mph N/A   Clear
2:55 PM 51.8 °F - 28.4 °F 41% 30.03 in 10.0 mi NW 19.6 mph 26.5 mph N/A   Clear
3:15 PM 51.8 °F - 28.4 °F 41% 30.04 in 10.0 mi NW 15.0 mph 26.5 mph N/A   Clear
3:35 PM 51.8 °F - 28.4 °F 41% 30.04 in 10.0 mi NW 19.6 mph 26.5 mph N/A   Clear
3:55 PM 51.8 °F - 26.6 °F 38% 30.04 in 10.0 mi NW 19.6 mph 26.5 mph N/A   Clear
4:15 PM 51.8 °F - 26.6 °F 38% 30.05 in 10.0 mi NW 21.9 mph - N/A   Clear
4:35 PM 51.8 °F - 26.6 °F 38% 30.05 in 10.0 mi NW 16.1 mph 21.9 mph N/A   Clear
4:55 PM 50.0 °F - 24.8 °F 37% 30.06 in 10.0 mi NW 17.3 mph 26.5 mph N/A   Clear
5:15 PM 50.0 °F - 26.6 °F 40% 30.05 in 10.0 mi NW 13.8 mph 19.6 mph N/A   Clear
5:35 PM 48.2 °F - 26.6 °F 43% 30.06 in 10.0 mi NW 10.4 mph 17.3 mph N/A   Clear
5:55 PM 46.4 °F 41.9 °F 26.6 °F 46% 30.06 in 10.0 mi WNW 9.2 mph - N/A   Clear
6:15 PM 44.6 °F 40.7 °F 28.4 °F 53% 30.07 in 10.0 mi NW 6.9 mph - N/A   Clear
6:35 PM 42.8 °F 38.0 °F 28.4 °F 57% 30.08 in 10.0 mi WNW 8.1 mph - N/A   Clear
6:55 PM 41.0 °F 37.1 °F 28.4 °F 61% 30.08 in 10.0 mi WNW 5.8 mph - N/A   Clear
7:15 PM 39.2 °F 35.9 °F 28.4 °F 65% 30.09 in 10.0 mi WNW 4.6 mph - N/A   Clear
7:35 PM 39.2 °F 37.0 °F 28.4 °F 65% 30.09 in 10.0 mi West 3.5 mph - N/A   Clear
7:55 PM 37.4 °F 34.9 °F 26.6 °F 65% 30.09 in 10.0 mi West 3.5 mph - N/A   Clear
8:15 PM 35.6 °F - 26.6 °F 70% 30.10 in 10.0 mi Calm Calm - N/A   Clear
8:35 PM 37.4 °F - 28.4 °F 70% 30.09 in 10.0 mi Calm Calm - N/A   Clear
8:55 PM 33.8 °F - 28.4 °F 81% 30.09 in 10.0 mi Calm Calm - N/A   Clear
9:15 PM 33.8 °F - 28.4 °F 81% 30.10 in 10.0 mi Calm Calm - N/A   Clear
9:35 PM 32.0 °F - 26.6 °F 80% 30.11 in 10.0 mi Calm Calm - N/A   Clear
9:55 PM 32.0 °F - 28.4 °F 87% 30.11 in - Calm Calm - N/A   Clear
10:15 PM 32.0 °F - 28.4 °F 87% 30.11 in 10.0 mi Calm Calm - N/A   Clear
10:35 PM 32.0 °F - 28.4 °F 87% 30.11 in 10.0 mi Calm Calm - N/A   Clear
10:55 PM 33.8 °F - 28.4 °F 81% 30.11 in 10.0 mi Calm Calm - N/A   Clear
11:15 PM 32.0 °F - 28.4 °F 87% 30.11 in 10.0 mi Calm Calm - N/A   Clear
11:35 PM 32.0 °F - 28.4 °F 87% 30.10 in 10.0 mi Calm Calm - N/A   Clear
11:55 PM 32.0 °F - 28.4 °F 87% 30.10 in 10.0 mi Calm Calm - N/A   Clear